Dewpoint
50 52 55 55 56 56 61 63 65 66 68 68 69 70 69 66 65 66 66 67 67 68 68 68 67 68 69 68 70 69 65 67 67 69 66 69 70 66 64 67 66 66 66 65 65 66 67 68 67 67 68 68 67 67 67 67 69 70 69 69 67 68 67
49 53 54 56 56 58 62 64 65 66 68 68 69 70 68 65 65 66 66 67 67 68 67 68 68 69 69 69 69 68 67 68 68 70 68 69 69 67 66 67 66 64 63 63 66 68 67 67 66 67 67 67 67 67 67 67 67 67 67 67 65 65 66
49 51 54 56 57 60 62 64 66 66 68 69 69 69 67 65 65 66 67 67 67 68 67 68 69 69 69 69 68 67 67 66 67 66 66 64 64 64 67 67 65 64 66 66 65 67 68 67 67 66 66 66 67 67 67 67 66 67 67 67 66 65 65
50 51 55 57 58 61 63 64 66 66 68 69 69 69 67 66 66 67 68 67 68 68 67 67 69 68 69 69 68 68 67 66 66 65 65 65 66 66 66 66 66 64 63 65 67 66 65 65 66 66 69 66 66 67 67 66 66 66 66 66 67 67 67
51 56 56 57 58 62 63 64 65 66 68 69 69 69 66 66 67 67 68 67 69 67 67 68 69 69 69 68 69 68 67 66 66 65 66 66 67 68 64 63 63 64 65 66 65 67 67 66 65 65 65 66 66 65 66 67 66 66 66 66 65 66 66
53 59 57 58 59 63 63 64 65 67 68 69 69 69 66 66 67 68 68 68 69 69 68 69 68 70 68 68 68 68 68 67 66 67 65 66 65 64 63 64 63 64 64 62 65 65 65 63 63 64 65 64 63 64 64 65 65 65 65 65 65 66 66
56 59 58 59 60 62 62 63 66 68 68 69 69 68 66 66 66 67 68 68 68 68 68 68 68 69 68 68 68 68 67 67 66 66 66 66 66 65 65 64 65 63 62 65 64 65 64 63 64 65 65 64 65 64 64 65 65 66 66 65 65 66 66
57 59 59 59 59 62 62 63 66 69 69 69 68 67 65 66 66 66 68 68 67 68 68 68 68 68 68 68 68 67 66 66 65 66 65 65 65 65 66 65 65 64 64 63 63 65 64 64 64 65 64 64 64 65 65 65 65 66 65 65 65 65 66
58 58 58 58 59 60 62 63 65 68 69 68 68 67 65 65 65 66 67 67 66 67 68 68 68 67 68 68 67 67 67 67 66 66 66 65 65 65 66 65 63 64 64 64 64 65 64 64 64 64 64 64 64 64 65 65 65 66 65 65 65 64 64
59 57 57 56 57 58 61 63 63 65 67 68 68 66 64 64 65 66 66 66 65 66 67 67 67 67 67 68 68 67 67 67 67 66 65 65 65 64 63 62 62 64 63 63 63 63 65 65 65 64 64 64 64 65 65 65 66 66 66 66 65 64 64
59 59 58 57 56 57 61 63 64 65 66 67 67 66 65 65 65 65 65 65 63 65 66 65 66 66 67 67 67 67 67 66 66 65 64 63 62 62 61 61 59 63 60 60 61 61 61 62 64 64 64 64 64 64 64 65 65 66 66 66 65 65 64
62 62 61 59 58 58 60 63 64 65 65 65 65 65 65 65 65 64 64 63 62 63 64 63 64 65 66 66 65 66 66 65 64 63 63 62 61 60 60 60 59 59 60 62 59 61 61 60 61 62 62 63 64 64 64 64 66 65 65 66 66 63 62
65 63 64 60 61 60 60 63 64 65 64 64 64 64 64 64 63 62 62 62 60 61 62 61 64 65 66 65 65 65 65 65 64 63 62 63 62 62 61 60 59 60 62 62 61 60 59 59 59 62 63 63 62 62 63 63 64 64 66 66 64 63 63
69 65 66 65 62 63 62 63 64 65 64 63 63 64 63 63 62 61 61 60 58 58 60 60 64 65 65 65 65 65 64 64 63 63 63 63 64 63 62 62 63 62 63 63 61 61 60 59 58 59 61 61 61 61 62 61 61 63 65 66 64 63 62
65 66 67 67 63 64 63 63 64 64 64 63 62 63 63 62 61 61 61 60 59 58 59 63 64 65 65 65 65 65 64 64 63 63 63 64 63 63 62 63 63 64 64 63 63 64 61 60 60 60 60 61 61 61 62 63 63 66 66 65 63 63 63
61 65 65 66 65 64 64 64 64 64 64 63 62 64 63 63 62 61 61 58 57 60 61 64 65 65 65 64 65 65 64 64 64 64 63 63 62 62 62 62 63 63 63 63 63 63 63 61 62 62 60 60 62 62 63 62 64 67 65 64 64 65 65
56 60 63 63 66 66 65 65 65 64 63 63 63 64 65 63 63 61 58 54 58 61 61 61 62 62 62 63 64 63 63 63 63 63 63 63 62 63 63 63 63 63 63 64 63 62 62 63 60 58 60 61 60 59 61 62 63 64 62 62 63 64 64
47 57 61 61 63 67 67 66 66 65 64 63 64 65 64 63 62 58 55 56 58 61 62 61 60 62 63 63 63 63 63 62 62 63 63 63 63 63 63 64 63 63 63 63 63 63 63 62 62 62 61 61 60 60 60 61 64 60 60 61 61 62 63
59 59 61 64 66 67 67 66 66 66 65 63 65 65 64 63 60 57 58 58 58 62 63 63 63 63 63 63 63 63 63 63 63 63 63 63 63 63 64 63 63 63 63 63 63 63 63 62 62 62 62 61 61 61 61 60 61 58 58 59 60 60 62
59 58 62 64 66 67 66 66 65 66 66 65 66 65 63 62 59 60 60 60 61 62 62 64 63 63 63 63 64 63 63 64 64 63 63 63 63 64 63 64 63 63 63 63 63 62 62 62 61 61 62 62 61 61 61 60 59 57 57 57 58 59 61
57 59 59 59 65 65 66 66 65 66 66 66 66 64 63 63 61 60 60 60 59 59 60 61 64 64 64 64 64 64 64 64 64 64 64 64 64 63 63 63 63 63 63 63 62 61 61 61 61 62 63 62 60 59 59 62 57 56 56 56 56 57 60
55 53 55 57 57 65 66 66 66 66 66 67 66 65 63 61 59 59 60 59 58 60 60 60 63 65 65 64 64 64 64 64 64 63 64 63 63 63 63 63 63 63 63 63 62 61 61 61 62 61 60 60 60 60 61 62 57 56 56 55 55 58 60
47 50 51 57 61 66 66 66 66 68 68 67 66 65 63 60 58 59 60 59 60 61 60 61 64 65 65 65 65 64 64 64 63 63 63 63 63 63 63 63 63 64 64 63 62 61 60 60 60 60 60 59 60 61 60 61 59 54 54 53 55 57 60
52 53 60 65 71 72 71 70 68 70 69 67 66 65 62 58 58 58 58 59 60 59 60 62 63 65 66 65 65 65 64 64 63 63 63 63 62 62 62 63 64 64 65 63 62 61 60 60 60 60 61 60 60 61 59 59 58 53 52 53 55 59 61
49 61 64 68 69 70 71 71 70 70 69 67 65 64 61 58 56 57 56 57 57 58 60 63 63 64 65 65 65 65 65 64 63 63 63 62 62 62 62 63 63 64 65 63 62 61 60 60 58 59 60 60 58 64 59 57 57 50 51 53 54 57 60
65 64 66 67 69 70 71 71 71 70 68 66 65 63 60 57 57 57 57 58 58 59 60 62 64 65 65 66 66 66 65 64 64 63 62 62 62 62 62 63 63 64 64 63 62 61 60 60 59 58 58 57 57 62 60 60 61 57 52 52 53 56 60
64 65 65 66 68 71 70 70 69 69 68 66 65 63 61 58 58 58 60 61 60 60 61 62 63 65 65 66 66 65 65 64 64 63 62 62 62 63 63 63 64 64 62 62 61 61 60 59 58 58 59 59 60 61 61 63 62 59 52 51 53 55 57
63 64 64 67 69 69 70 70 69 68 67 67 65 63 62 60 60 61 63 62 61 61 62 63 64 65 65 66 66 65 64 64 64 64 64 64 64 64 65 65 65 64 64 64 61 61 61 61 60 59 60 60 61 61 61 63 64 61 55 52 51 51 53
61 62 66 67 67 69 69 68 68 66 66 66 64 64 63 63 63 64 64 63 63 67 69 68 65 65 67 67 66 65 64 64 63 63 65 64 64 64 64 65 64 64 64 64 64 62 61 62 62 60 60 60 61 60 60 61 63 61 60 52 49 48 49
58 60 67 67 68 68 67 66 64 64 66 66 65 66 65 66 66 67 66 67 68 69 69 69 69 69 68 67 67 66 65 63 64 66 65 64 64 63 62 63 64 64 64 63 62 60 59 61 62 61 59 59 59 59 59 62 63 61 61 57 50 47 47
65 66 66 66 65 65 65 65 63 63 64 65 66 67 68 68 68 68 67 67 67 67 67 68 68 67 67 67 67 67 66 67 65 63 62 64 63 62 62 62 63 62 62 62 61 60 59 59 60 60 60 59 58 58 60 63 62 60 61 59 56 50 47
63 62 62 63 64 64 64 64 64 64 64 64 66 68 69 69 68 67 66 66 66 65 66 67 66 65 66 67 67 68 67 66 63 62 62 62 62 62 63 63 63 61 60 60 61 61 60 59 58 59 58 58 58 60 60 61 62 61 61 61 59 56 54
63 64 64 63 64 64 63 64 64 64 64 65 65 64 65 65 65 65 65 65 66 66 67 67 67 67 67 67 68 67 66 64 64 63 62 61 61 62 63 63 62 60 59 59 59 60 60 59 59 59 59 58 59 59 60 60 61 58 55 54 54 54 54
62 62 63 63 63 63 63 63 63 64 64 64 64 65 65 65 65 66 65 63 56 60 66 66 67 67 67 67 67 66 65 65 67 64 62 63 62 61 61 61 61 61 60 59 59 58 58 58 59 60 59 59 60 59 59 58 55 52 52 51 51 51 50
62 63 64 63 63 63 62 62 63 63 63 63 62 60 57 56 52 51 55 59 63 63 63 64 65 65 65 66 66 66 66 64 63 63 62 62 60 53 51 52 55 58 57 50 50 55 59 60 59 60 60 61 58 57 57 57 56 53 47 52 46 48 47
63 63 63 63 63 63 63 63 62 62 61 60 61 61 59 59 56 52 53 59 63 65 63 64 63 62 60 61 63 63 65 63 61 61 62 62 58 51 50 49 43 45 57 53 49 45 43 47 57 57 57 51 52 56 58 56 53 45 42 41 40 40 41
62 61 62 63 62 62 62 62 63 63 61 61 61 58 58 59 60 59 61 62 61 62 62 64 64 62 61 59 58 63 65 62 61 61 61 62 60 54 52 51 49 42 42 47 47 43 40 40 42 45 51 54 51 49 47 47 43 41 41 40 39 39 39
62 61 60 61 61 61 62 62 62 62 61 61 59 60 60 61 62 61 59 62 62 61 61 62 63 61 60 59 60 66 65 64 63 63 62 62 62 58 56 54 51 50 43 41 43 42 40 39 40 42 44 46 49 48 49 45 41 40 40 40 40 40 39